When you browse on this site, cookies collect data to enhance your experience and personalize the content and advertising you see.
Visit our Privacy Policy to learn more. By continuing to use the site, you agree to this use of cookies and data.
  • In Portugal
  • List of Countries
  • For 7 days
  • Water Temperature
  • Weather Map
  • Weather Widgets
  • user-avatar
    Login

    Hourly Weather Veleshino

    Today, 18 September, Wednesday

    Time Temperature Precipitation Wind Pressure Humidity
    00:00 +7°C° 0 mm 4 mps 730 mmHg 90%
    01:00 +6°C° 0 mm 4 mps 730 mmHg 90%
    02:00 +7°C° 0 mm 3 mps 729 mmHg 92%
    03:00 +6°C° 0.7 mm 4 mps 729 mmHg 92%
    04:00 +5°C° 0.7 mm 5 mps 729 mmHg 91%
    05:00 +5°C° 0.7 mm 5 mps 729 mmHg 91%
    06:00 +4°C° 0.3 mm 6 mps 729 mmHg 89%
    07:00 +4°C° 0.3 mm 6 mps 730 mmHg 88%
    08:00 +4°C° 0.3 mm 6 mps 730 mmHg 87%
    09:00 +5°C° 0 mm 6 mps 731 mmHg 83%
    10:00 +5°C° 0 mm 6 mps 731 mmHg 80%
    11:00 +7°C° 0 mm 6 mps 732 mmHg 77%
    12:00 +7°C° 0.1 mm 6 mps 732 mmHg 78%
    13:00 +7°C° 0.1 mm 6 mps 733 mmHg 78%
    14:00 +6°C° 0.1 mm 7 mps 733 mmHg 79%
    15:00 +8°C° 0.1 mm 6 mps 734 mmHg 77%
    16:00 +8°C° 0.1 mm 6 mps 734 mmHg 76%
    17:00 +9°C° 0.1 mm 5 mps 735 mmHg 74%
    18:00 +8°C° 0 mm 5 mps 735 mmHg 79%
    19:00 +7°C° 0 mm 5 mps 736 mmHg 83%
    20:00 +6°C° 0 mm 4 mps 736 mmHg 87%
    21:00 +6°C° 0 mm 5 mps 737 mmHg 89%
    22:00 +6°C° 0 mm 5 mps 737 mmHg 92%
    23:00 +6°C° 0 mm 5 mps 737 mmHg 94%

    Tomorrow, 19 September, Thursday

    Time Temperature Precipitation Wind Pressure Humidity
    00:00 +5°C° 0 mm 5 mps 738 mmHg 95%
    01:00 +5°C° 0 mm 4 mps 738 mmHg 95%
    02:00 +5°C° 0 mm 4 mps 738 mmHg 96%
    03:00 +5°C° 0 mm 5 mps 739 mmHg 95%
    04:00 +6°C° 0 mm 5 mps 739 mmHg 94%
    05:00 +6°C° 0 mm 5 mps 739 mmHg 93%
    06:00 +6°C° 0.3 mm 5 mps 740 mmHg 92%
    07:00 +6°C° 0.3 mm 5 mps 740 mmHg 91%
    08:00 +6°C° 0.3 mm 5 mps 740 mmHg 91%
    09:00 +7°C° 0.1 mm 5 mps 741 mmHg 89%
    10:00 +7°C° 0.1 mm 5 mps 741 mmHg 87%
    11:00 +7°C° 0.1 mm 4 mps 742 mmHg 84%
    12:00 +8°C° 0 mm 4 mps 742 mmHg 80%
    13:00 +10°C° 0 mm 4 mps 742 mmHg 75%
    14:00 +11°C° 0 mm 4 mps 742 mmHg 70%
    15:00 +11°C° 0 mm 4 mps 742 mmHg 69%
    16:00 +11°C° 0 mm 3 mps 742 mmHg 69%
    17:00 +11°C° 0 mm 3 mps 742 mmHg 69%
    18:00 +9°C° 0.1 mm 3 mps 742 mmHg 75%
    19:00 +8°C° 0.1 mm 3 mps 742 mmHg 81%
    20:00 +7°C° 0.1 mm 3 mps 742 mmHg 87%
    21:00 +7°C° 0 mm 3 mps 742 mmHg 88%
    22:00 +5°C° 0 mm 3 mps 742 mmHg 89%
    23:00 +5°C° 0 mm 3 mps 742 mmHg 90%

    Day after tomorrow, 20 September, Friday

    Time Temperature Precipitation Wind Pressure Humidity
    00:00 +5°C° 0.1 mm 4 mps 742 mmHg 91%
    01:00 +5°C° 0.1 mm 4 mps 742 mmHg 93%
    02:00 +5°C° 0.1 mm 4 mps 742 mmHg 95%
    03:00 +5°C° 0 mm 4 mps 742 mmHg 95%
    04:00 +4°C° 0 mm 4 mps 742 mmHg 95%
    05:00 +3°C° 0 mm 5 mps 742 mmHg 95%
    06:00 +3°C° 0 mm 5 mps 743 mmHg 91%
    07:00 +4°C° 0 mm 6 mps 743 mmHg 87%
    08:00 +4°C° 0 mm 6 mps 743 mmHg 83%
    09:00 +5°C° 0 mm 6 mps 744 mmHg 75%
    10:00 +7°C° 0 mm 6 mps 744 mmHg 68%
    11:00 +8°C° 0 mm 6 mps 744 mmHg 61%
    12:00 +9°C° 0.1 mm 6 mps 744 mmHg 57%
    13:00 +9°C° 0.1 mm 7 mps 744 mmHg 53%
    14:00 +10°C° 0.1 mm 7 mps 744 mmHg 49%
    15:00 +9°C° 0 mm 6 mps 745 mmHg 52%
    16:00 +9°C° 0 mm 5 mps 745 mmHg 56%
    17:00 +8°C° 0 mm 4 mps 745 mmHg 59%
    18:00 +7°C° 0 mm 4 mps 745 mmHg 65%
    19:00 +5°C° 0 mm 3 mps 745 mmHg 72%
    20:00 +4°C° 0 mm 3 mps 746 mmHg 78%
    21:00 +3°C° 0 mm 3 mps 746 mmHg 80%
    22:00 +4°C° 0 mm 2 mps 746 mmHg 83%
    23:00 +3°C° 0 mm 2 mps 746 mmHg 85%

    21 September, Saturday

    Time Temperature Precipitation Wind Pressure Humidity
    00:00 +3°C° 0 mm 2 mps 746 mmHg 86%
    01:00 +3°C° 0 mm 2 mps 747 mmHg 86%
    02:00 +3°C° 0 mm 2 mps 747 mmHg 87%
    03:00 +3°C° 0 mm 2 mps 747 mmHg 87%
    04:00 +3°C° 0 mm 2 mps 746 mmHg 87%
    05:00 +3°C° 0 mm 2 mps 746 mmHg 87%
    06:00 +3°C° 0 mm 3 mps 746 mmHg 82%
    07:00 +4°C° 0 mm 3 mps 746 mmHg 78%
    08:00 +5°C° 0 mm 3 mps 746 mmHg 73%
    09:00 +6°C° 0 mm 4 mps 746 mmHg 73%
    10:00 +6°C° 0 mm 5 mps 746 mmHg 73%
    11:00 +7°C° 0 mm 5 mps 745 mmHg 74%
    12:00 +7°C° 0.2 mm 5 mps 745 mmHg 78%
    13:00 +7°C° 0.2 mm 6 mps 745 mmHg 83%
    14:00 +8°C° 0.2 mm 6 mps 744 mmHg 88%
    15:00 +9°C° 0 mm 5 mps 744 mmHg 86%
    16:00 +10°C° 0 mm 5 mps 744 mmHg 85%
    17:00 +12°C° 0 mm 5 mps 743 mmHg 83%
    18:00 +12°C° 0 mm 5 mps 743 mmHg 84%
    19:00 +11°C° 0 mm 4 mps 743 mmHg 86%
    20:00 +11°C° 0 mm 4 mps 743 mmHg 87%
    21:00 +11°C° 0 mm 4 mps 743 mmHg 89%
    22:00 +10°C° 0 mm 4 mps 743 mmHg 91%
    23:00 +10°C° 0 mm 4 mps 743 mmHg 93%

    22 September, Sunday

    Time Temperature Precipitation Wind Pressure Humidity
    00:00 +9°C° 0 mm 5 mps 743 mmHg 93%
    01:00 +9°C° 0 mm 5 mps 743 mmHg 93%
    02:00 +9°C° 0 mm 5 mps 743 mmHg 93%
    03:00 +9°C° 0 mm 6 mps 743 mmHg 92%
    04:00 +9°C° 0 mm 6 mps 743 mmHg 91%
    05:00 +9°C° 0 mm 6 mps 743 mmHg 89%
    06:00 +9°C° 0 mm 5 mps 743 mmHg 88%
    07:00 +10°C° 0 mm 5 mps 743 mmHg 87%
    08:00 +10°C° 0 mm 5 mps 743 mmHg 87%
    09:00 +12°C° 0 mm 5 mps 743 mmHg 81%
    10:00 +13°C° 0 mm 4 mps 743 mmHg 76%
    11:00 +15°C° 0 mm 4 mps 744 mmHg 70%
    12:00 +15°C° 0 mm 4 mps 744 mmHg 69%
    13:00 +17°C° 0 mm 4 mps 743 mmHg 67%
    14:00 +17°C° 0 mm 3 mps 743 mmHg 65%
    15:00 +17°C° 0 mm 3 mps 743 mmHg 67%
    16:00 +16°C° 0 mm 3 mps 743 mmHg 69%
    17:00 +15°C° 0 mm 2 mps 743 mmHg 71%
    18:00 +14°C° 0 mm 2 mps 743 mmHg 70%
    19:00 +11°C° 0 mm 3 mps 743 mmHg 69%
    20:00 +9°C° 0 mm 3 mps 743 mmHg 68%
    21:00 +9°C° 0 mm 3 mps 744 mmHg 63%
    22:00 +8°C° 0 mm 3 mps 744 mmHg 59%
    23:00 +7°C° 0 mm 3 mps 744 mmHg 55%

    23 September, Monday

    Time Temperature Precipitation Wind Pressure Humidity
    00:00 +7°C° 0 mm 3 mps 744 mmHg 55%
    01:00 +6°C° 0 mm 4 mps 744 mmHg 55%
    02:00 +6°C° 0 mm 4 mps 744 mmHg 56%
    03:00 +6°C° 0 mm 4 mps 743 mmHg 56%
    04:00 +6°C° 0 mm 4 mps 743 mmHg 55%
    05:00 +6°C° 0 mm 4 mps 743 mmHg 55%
    06:00 +6°C° 0 mm 4 mps 743 mmHg 56%
    07:00 +6°C° 0 mm 4 mps 743 mmHg 56%
    08:00 +6°C° 0 mm 4 mps 742 mmHg 57%
    09:00 +7°C° 0 mm 4 mps 742 mmHg 58%
    10:00 +7°C° 0 mm 5 mps 742 mmHg 59%
    11:00 +8°C° 0 mm 5 mps 742 mmHg 60%
    12:00 +9°C° 0 mm 5 mps 742 mmHg 59%
    13:00 +9°C° 0 mm 5 mps 741 mmHg 58%
    14:00 +10°C° 0 mm 5 mps 741 mmHg 58%
    15:00 +10°C° 0 mm 5 mps 741 mmHg 59%
    16:00 +11°C° 0 mm 4 mps 741 mmHg 60%
    17:00 +10°C° 0 mm 4 mps 740 mmHg 62%
    18:00 +8°C° 0 mm 4 mps 740 mmHg 64%
    19:00 +7°C° 0 mm 4 mps 740 mmHg 66%
    20:00 +5°C° 0 mm 4 mps 740 mmHg 68%
    21:00 +5°C° 0 mm 4 mps 740 mmHg 68%
    22:00 +4°C° 0 mm 4 mps 740 mmHg 69%
    23:00 +4°C° 0 mm 4 mps 740 mmHg 70%
    Show more